Weather History for Assiniboia, SK

Change the Weather History Date:

Thursday, August 29, 2013

  Actual Average Record
Temperature  
Mean Temperature 73 °F -  
Max Temperature 92 °F - - ()
Min Temperature 54 °F - - ()
Cooling Degree Days 8    
Growing Degree Days 23 (Base 50)    
Moisture  
Dew Point 52 °F    
Average Humidity 53    
Maximum Humidity 94    
Minimum Humidity 11    
Precipitation  
Precipitation 0.00 in - - ()
Sea Level Pressure  
Sea Level Pressure 29.94 in    
Wind  
Wind Speed 7 mph ()    
Max Wind Speed 14 mph    
Max Gust Speed -    
T = Trace of Precipitation, MM = Missing Value Source: Averaged Metar Reports

Daily Weather History Graph

Daily Weather History Graph

Search for Another Location

Airport:

Trip Planner

Search our weather history database for the weather conditions in past years. The results will help you decide how hot, cold, wet, or windy it might be!

Date:

Astronomy

Aug. 29, 2013 Rise Set
Actual Time 6:15 AM CST 7:52 PM CST
Civil Twilight 5:41 AM CST 8:26 PM CST
Nautical Twilight 5:00 AM CST 9:07 PM CST
Astronomical Twilight 4:14 AM CST 9:52 PM CST
Moon No Moon Rise 3:41 PM CST (8/29)
Length of Visible Light 14h 44m
Length of Day
13h 37m
Last Quarter, 37% of the Moon is Illuminated
Aug 29
Last Quarter
Sep 5
New
Sep 12
First Quarter
Sep 19
Full
Sep 26
Last Quarter

Hourly Weather History & Observations

Time (CST) Temp. Heat Index Dew Point Humidity Pressure Visibility Wind Dir Wind Speed Gust Speed Precip Events Conditions
12:00 AM 69 °F - 57 °F 57% 29.91 in - NE 12.7 mph - -  
12:00 AM 69.4 °F - 57.2 °F 65% 29.91 in - NE 12.7 mph - N/A   Unknown
1:00 AM 66.9 °F - 57.6 °F 72% 29.93 in - NNE 13.8 mph - N/A   Unknown
2:00 AM 64.8 °F - 56.8 °F 75% 29.92 in - ESE 8.1 mph - N/A   Unknown
3:00 AM 62.1 °F - 55.8 °F 80% 29.91 in - ENE 5.8 mph - N/A   Unknown
4:00 AM 56.3 °F - 52.0 °F 85% 29.92 in - SW 2.3 mph - N/A   Unknown
5:00 AM 55.9 °F - 53.4 °F 91% 29.92 in - SW 4.6 mph - N/A   Unknown
6:00 AM 54 °F - 52 °F 91% 29.95 in - WSW 5.8 mph - -  
6:00 AM 54.5 °F - 52.2 °F 92% 29.95 in - WSW 5.8 mph - N/A   Unknown
7:00 AM 57.7 °F - 56.1 °F 94% 29.96 in - SW 5.8 mph - N/A   Unknown
8:00 AM 65.5 °F - 57.9 °F 77% 29.96 in - West 6.9 mph - N/A   Unknown
9:00 AM 70.9 °F - 55.9 °F 59% 29.96 in - West 4.6 mph - N/A   Unknown
10:00 AM 76.5 °F - 54.1 °F 46% 29.97 in - SSW 3.5 mph - N/A   Unknown
11:00 AM 80.1 °F 80.0 °F 53.4 °F 40% 29.97 in - WSW 6.9 mph - N/A   Unknown
12:00 PM 82 °F - 53 °F 26% 29.98 in - North 4.6 mph - -  
12:00 PM 82.0 °F 81.2 °F 53.1 °F 37% 29.98 in - North 4.6 mph - N/A   Unknown
1:00 PM 84.7 °F - 52.5 °F 33% 29.97 in - NNW 4.6 mph - N/A   Unknown
2:00 PM 88.0 °F - 51.8 °F 29% 29.96 in - ESE 3.5 mph - N/A   Unknown
3:00 PM 89.8 °F - 50.0 °F 25% 29.96 in - SSW 8.1 mph - N/A   Unknown
4:00 PM 90.9 °F - 46.2 °F 21% 29.94 in - WSW 6.9 mph - N/A   Unknown
5:00 PM 90.5 °F - 43.2 °F 19% 29.94 in - WNW 5.8 mph - N/A   Unknown
6:00 PM 89 °F - 42 °F 11% 29.93 in - SW 4.6 mph - -  
6:00 PM 89.4 °F - 42.4 °F 19% 29.93 in - SW 4.6 mph - N/A   Unknown
7:00 PM 86.4 °F - 44.6 °F 23% 29.92 in - SW 2.3 mph - N/A   Unknown
8:00 PM 79.2 °F - 45.9 °F 31% 29.93 in - South 4.6 mph - N/A   Unknown
9:00 PM 73.0 °F - 50.4 °F 45% 29.94 in - SSW 8.1 mph - N/A   Unknown
10:00 PM 69.8 °F - 55.6 °F 61% 29.95 in - SE 6.9 mph - N/A   Unknown
11:00 PM 68.2 °F - 57.4 °F 68% 29.94 in - SE 5.8 mph - N/A   Unknown